Regional Weather Roundup
Issued by NWS

Home | Current Version | Previous Version | Graphics & Text | Print | Product List | Glossary On
Versions: 1 2 3 4 5 6 7 8 9 10 11 12 13 14 15 16 17 18 19 20 21 22 23 24 25 26 27 28 29 30 31 32 33 34 35 36 37 38 39 40 41 42 43 44 45 46 47 48 49 50
650
ASUS45 KBOI 140810
RWRID

IDAHO REGIONAL WEATHER ROUNDUP
NATIONAL WEATHER SERVICE BOISE ID
100 AM MST SUN FEB 14 2016

NOTE: "FAIR" INDICATES FEW OR NO CLOUDS BELOW 12000 FEET
WITH NO SIGNIFICANT WEATHER AND/OR OBSTRUCTIONS TO VISIBILITY

IDZ012-014-140900-
SOUTHWEST IDAHO


CITY           SKY/WX    TMP DP  RH WIND       PRES   REMARKS
BOISE          LGT RAIN  43  35  73 E6        30.18F
CALDWELL       CLOUDY    42  32  67 CALM      30.20F
MOUNTAIN HOME  CLOUDY    40  31  69 E8        30.18F WCI  34
$$

IDZ016-017-140900-
SOUTHCENTRAL IDAHO


CITY           SKY/WX    TMP DP  RH WIND       PRES   REMARKS
BURLEY         CLOUDY    36  30  79 CALM      30.17F
JEROME         CLOUDY    37  26  64 CALM      30.18F
TWIN FALLS     CLOUDY    41  29  62 S13       30.17F
$$

IDZ019>023-140900-
SOUTHEAST IDAHO


CITY           SKY/WX    TMP DP  RH WIND       PRES   REMARKS
IDAHO FALLS    CLOUDY    35  27  72 S13       30.14F WCI  26
POCATELLO      CLOUDY    37  27  67 S6        30.17F WCI  32
REXBURG        CLOUDY    32  26  78 W3        30.13F
$$

IDZ006-010-011-018-031-032-140900-
CENTRAL IDAHO MOUNTAINS


CITY           SKY/WX    TMP DP  RH WIND       PRES   REMARKS
MCCALL         LGT SNOW  31  29  92 CALM      30.15F FOG
HAILEY         CLOUDY    28  21  74 NW3       30.18S
STANLEY          N/A     28  24  85 NW5       30.17R WCI  23
SALMON         CLOUDY    32  27  80 SW7       30.10R WCI  26
CHALLIS        CLOUDY    31  23  72 CALM      30.10S
$$

IDZ002-004-006-007-026-140900-
NORTHERN IDAHO


CITY           SKY/WX    TMP DP  RH WIND       PRES   REMARKS
LEWISTON       CLOUDY    41  38  89 CALM      30.11F
LOWELL           N/A     40  38  93 CALM      30.17F
COEUR D`ALENE  CLOUDY    36  32  87 SE5       30.04F WCI  32
MULLAN PASS    LGT SNOW  25  24  96 VRB6      29.94F FOG     WCI  18
$$




USA.gov is the U.S. government's official web portal to all federal, state and local government web resources and services.